[keps] orb09344.amsat
Ray Hoad
ray.hoad at mypbmail.com
Thu Dec 10 18:52:57 PST 2009
SB KEPS @ AMSAT $ORB09344.O
Orbital Elements 09344.OSCAR
HR AMSAT ORBITAL ELEMENTS FOR OSCAR SATELLITES
FROM WA5QGD FORT WORTH,TX December 10, 2009
Send Subscribe/unsubscribe to KEPS at http://www.amsat.org/mailman/listinfo/keps
BID: ORB09344.O
TO ALL RADIO AMATEURS BT
Satellite: AO-07
Catalog number: 07530
Epoch time: 09344.62039451
Element set: 651
Inclination: 101.4135 deg
RA of node: 002.7312 deg
Eccentricity: 0.0011832
Arg of perigee: 283.8784 deg
Mean anomaly: 076.0968 deg
Mean motion: 12.53577265 rev/day
Decay rate: -2.7e-07 rev/day^2
Epoch rev: 60482
Checksum: 289
Satellite: FO-29
Catalog number: 24278
Epoch time: 09343.63850766
Element set: 195
Inclination: 098.5232 deg
RA of node: 193.8538 deg
Eccentricity: 0.0349814
Arg of perigee: 255.5290 deg
Mean anomaly: 100.6800 deg
Mean motion: 13.52947113 rev/day
Decay rate: 2.8e-07 rev/day^2
Epoch rev: 65747
Checksum: 333
Satellite: SO-33
Catalog number: 25509
Epoch time: 09344.75394707
Element set: 605
Inclination: 031.4286 deg
RA of node: 134.0606 deg
Eccentricity: 0.0353910
Arg of perigee: 082.2837 deg
Mean anomaly: 281.7818 deg
Mean motion: 14.28272887 rev/day
Decay rate: -6.0e-08 rev/day^2
Epoch rev: 58109
Checksum: 321
Satellite: RS-22
Catalog number: 27939
Epoch time: 09344.68143357
Element set: 959
Inclination: 097.9173 deg
RA of node: 212.8521 deg
Eccentricity: 0.0012666
Arg of perigee: 297.5612 deg
Mean anomaly: 062.4298 deg
Mean motion: 14.63364356 rev/day
Decay rate: 3.3e-07 rev/day^2
Epoch rev: 33138
Checksum: 331
Satellite: VO-52
Catalog number: 28650
Epoch time: 09344.65354854
Element set: 384
Inclination: 097.7217 deg
RA of node: 040.1796 deg
Eccentricity: 0.0027326
Arg of perigee: 170.6757 deg
Mean anomaly: 189.5004 deg
Mean motion: 14.81652456 rev/day
Decay rate: -5.7e-07 rev/day^2
Epoch rev: 24877
Checksum: 337
Satellite: SO-67
Catalog number: 35870
Epoch time: 09344.79474714
Element set: 249
Inclination: 097.3606 deg
RA of node: 033.2408 deg
Eccentricity: 0.0011912
Arg of perigee: 006.8146 deg
Mean anomaly: 126.7752 deg
Mean motion: 15.22880313 rev/day
Decay rate: 3.41e-06 rev/day^2
Epoch rev: 1279
Checksum: 304
/EX
SB KEPS @ AMSAT $ORB09344.D
Orbital Elements 09344.MICROS
HR AMSAT ORBITAL ELEMENTS FOR THE MICROSATS
FROM WA5QGD FORT WORTH,TX December 10, 2009
Send Subscribe/unsubscribe to KEPS at http://www.amsat.org/mailman/listinfo/keps
BID: ORB09344.D
TO ALL RADIO AMATEURS BT
Satellite: UO-11
Catalog number: 14781
Epoch time: 09343.55493401
Element set: 125
Inclination: 098.0834 deg
RA of node: 029.4387 deg
Eccentricity: 0.0009690
Arg of perigee: 126.0865 deg
Mean anomaly: 234.1265 deg
Mean motion: 14.79751161 rev/day
Decay rate: -2.11e-06 rev/day^2
Epoch rev: 38376
Checksum: 305
Satellite: AO-16
Catalog number: 20439
Epoch time: 09344.44345798
Element set: 770
Inclination: 098.3062 deg
RA of node: 305.0598 deg
Eccentricity: 0.0011154
Arg of perigee: 012.2297 deg
Mean anomaly: 347.9161 deg
Mean motion: 14.31841547 rev/day
Decay rate: -4.0e-08 rev/day^2
Epoch rev: 3837
Checksum: 303
Satellite: LO-19
Catalog number: 20442
Epoch time: 09344.05246595
Element set: 678
Inclination: 098.2678 deg
RA of node: 311.2564 deg
Eccentricity: 0.0011839
Arg of perigee: 009.0660 deg
Mean anomaly: 351.0733 deg
Mean motion: 14.32075328 rev/day
Decay rate: 3.0e-08 rev/day^2
Epoch rev: 3848
Checksum: 299
Satellite: AO-27
Catalog number: 22825
Epoch time: 09343.99999726
Element set: 404
Inclination: 098.4640 deg
RA of node: 292.0933 deg
Eccentricity: 0.0009378
Arg of perigee: 106.1669 deg
Mean anomaly: 254.0535 deg
Mean motion: 14.29280500 rev/day
Decay rate: -2.0e-08 rev/day^2
Epoch rev: 84502
Checksum: 319
Satellite: IO-26
Catalog number: 22826
Epoch time: 09344.86906615
Element set: 140
Inclination: 098.4555 deg
RA of node: 293.6121 deg
Eccentricity: 0.0009813
Arg of perigee: 097.8338 deg
Mean anomaly: 262.3962 deg
Mean motion: 14.29534184 rev/day
Decay rate: 2.0e-08 rev/day^2
Epoch rev: 84525
Checksum: 322
Satellite: GO-32
Catalog number: 25397
Epoch time: 09344.82230806
Element set: 60
Inclination: 098.3173 deg
RA of node: 357.6192 deg
Eccentricity: 0.0002175
Arg of perigee: 094.6356 deg
Mean anomaly: 265.5056 deg
Mean motion: 14.23167500 rev/day
Decay rate: -7.1e-07 rev/day^2
Epoch rev: 59325
Checksum: 300
Satellite: NO-44
Catalog number: 26931
Epoch time: 09343.53950572
Element set: 333
Inclination: 067.0539 deg
RA of node: 332.5799 deg
Eccentricity: 0.0007204
Arg of perigee: 269.6160 deg
Mean anomaly: 090.4124 deg
Mean motion: 14.29576141 rev/day
Decay rate: 4.0e-08 rev/day^2
Epoch rev: 42764
Checksum: 303
Satellite: SO-50
Catalog number: 27607
Epoch time: 09344.07717404
Element set: 52
Inclination: 064.5576 deg
RA of node: 210.8886 deg
Eccentricity: 0.0045873
Arg of perigee: 157.7421 deg
Mean anomaly: 202.5663 deg
Mean motion: 14.71480282 rev/day
Decay rate: -8.6e-07 rev/day^2
Epoch rev: 37455
Checksum: 315
Satellite: CO-55
Catalog number: 27844
Epoch time: 09344.48903894
Element set: 730
Inclination: 098.7117 deg
RA of node: 351.1652 deg
Eccentricity: 0.0010145
Arg of perigee: 000.2487 deg
Mean anomaly: 359.8700 deg
Mean motion: 14.20671676 rev/day
Decay rate: 1.8e-07 rev/day^2
Epoch rev: 33429
Checksum: 311
Satellite: CO-57
Catalog number: 27848
Epoch time: 09344.49139325
Element set: 682
Inclination: 098.7176 deg
RA of node: 350.2383 deg
Eccentricity: 0.0009815
Arg of perigee: 005.5877 deg
Mean anomaly: 354.5427 deg
Mean motion: 14.20469316 rev/day
Decay rate: 2.0e-07 rev/day^2
Epoch rev: 33425
Checksum: 326
Satellite: AO-51
Catalog number: 28375
Epoch time: 09343.54308392
Element set: 552
Inclination: 098.0527 deg
RA of node: 342.9475 deg
Eccentricity: 0.0084132
Arg of perigee: 313.7019 deg
Mean anomaly: 045.7219 deg
Mean motion: 14.40662134 rev/day
Decay rate: 2.2e-07 rev/day^2
Epoch rev: 28620
Checksum: 295
Satellite: CO-56
Catalog number: 28941
Epoch time: 09297.68475575
Element set: 556
Inclination: 098.0955 deg
RA of node: 138.9518 deg
Eccentricity: 0.0011688
Arg of perigee: 319.8691 deg
Mean anomaly: 040.7485 deg
Mean motion: 16.46998778 rev/day
Decay rate: 1.4491492e-01 rev/day^2
Epoch rev: 20790
Checksum: 407
Satellite: GENESAT1
Catalog number: 29655
Epoch time: 09344.88390773
Element set: 885
Inclination: 040.0201 deg
RA of node: 152.6975 deg
Eccentricity: 0.0005081
Arg of perigee: 006.7957 deg
Mean anomaly: 353.2929 deg
Mean motion: 15.70694619 rev/day
Decay rate: 1.6253e-04 rev/day^2
Epoch rev: 17021
Checksum: 320
Satellite: CP3
Catalog number: 31129
Epoch time: 09344.77255016
Element set: 386
Inclination: 097.9669 deg
RA of node: 029.1780 deg
Eccentricity: 0.0103382
Arg of perigee: 098.0011 deg
Mean anomaly: 263.2926 deg
Mean motion: 14.52188825 rev/day
Decay rate: 8.6e-07 rev/day^2
Epoch rev: 14051
Checksum: 307
Satellite: CO-65
Catalog number: 32785
Epoch time: 09343.86268420
Element set: 546
Inclination: 097.9256 deg
RA of node: 046.1709 deg
Eccentricity: 0.0015009
Arg of perigee: 175.9441 deg
Mean anomaly: 184.1890 deg
Mean motion: 14.81551940 rev/day
Decay rate: -1.22e-06 rev/day^2
Epoch rev: 8745
Checksum: 326
Satellite: KKS-1
Catalog number: 33493
Epoch time: 09344.80821389
Element set: 17
Inclination: 098.0704 deg
RA of node: 097.9516 deg
Eccentricity: 0.0020716
Arg of perigee: 033.3030 deg
Mean anomaly: 326.9481 deg
Mean motion: 14.80794849 rev/day
Decay rate: 2.76e-06 rev/day^2
Epoch rev: 4760
Checksum: 312
Satellite: SOHLA-1
Catalog number: 33496
Epoch time: 09344.88566025
Element set: 970
Inclination: 098.0491 deg
RA of node: 091.5626 deg
Eccentricity: 0.0007757
Arg of perigee: 081.8543 deg
Mean anomaly: 278.3536 deg
Mean motion: 14.69459085 rev/day
Decay rate: 7.0e-07 rev/day^2
Epoch rev: 4722
Checksum: 335
/EX
SB KEPS @ AMSAT $ORB09344.W
Orbital Elements 09344.WEATHER
HR AMSAT ORBITAL ELEMENTS FOR WEATHER SATELLITES
FROM WA5QGD FORT WORTH,TX December 10, 2009
Send Subscribe/unsubscribe to KEPS at http://www.amsat.org/mailman/listinfo/keps
BID: ORB09344.W
TO ALL RADIO AMATEURS BT
Satellite: NOAA-10
Catalog number: 16969
Epoch time: 09344.10196290
Element set: 868
Inclination: 098.6765 deg
RA of node: 009.6594 deg
Eccentricity: 0.0013007
Arg of perigee: 045.7485 deg
Mean anomaly: 314.4759 deg
Mean motion: 14.27401248 rev/day
Decay rate: 1.7e-07 rev/day^2
Epoch rev: 20860
Checksum: 321
Satellite: NOAA-11
Catalog number: 19531
Epoch time: 09344.14826873
Element set: 882
Inclination: 098.7783 deg
RA of node: 071.3402 deg
Eccentricity: 0.0011348
Arg of perigee: 330.8965 deg
Mean anomaly: 029.1565 deg
Mean motion: 14.14910909 rev/day
Decay rate: 2.22e-06 rev/day^2
Epoch rev: 9440
Checksum: 307
Satellite: NOAA-12
Catalog number: 21263
Epoch time: 09344.55473262
Element set: 366
Inclination: 098.7702 deg
RA of node: 352.6990 deg
Eccentricity: 0.0012505
Arg of perigee: 358.9761 deg
Mean anomaly: 001.1389 deg
Mean motion: 14.25606165 rev/day
Decay rate: 2.6e-07 rev/day^2
Epoch rev: 96552
Checksum: 309
Satellite: MET-3/5
Catalog number: 21655
Epoch time: 09343.94164257
Element set: 0743
Inclination: 082.5507 deg
RA of node: 082.3436 deg
Eccentricity: 0.0014551
Arg of perigee: 099.9442 deg
Mean anomaly: 260.3324 deg
Mean motion: 13.17021063 rev/day
Decay rate: 5.1e-07 rev/day^2
Epoch rev: 88076
Checksum: 294
Satellite: MET-2/21
Catalog number: 22782
Epoch time: 09344.84203413
Element set: 640
Inclination: 082.5487 deg
RA of node: 041.8720 deg
Eccentricity: 0.0021641
Arg of perigee: 207.8108 deg
Mean anomaly: 152.1890 deg
Mean motion: 13.83640789 rev/day
Decay rate: -9.7e-07 rev/day^2
Epoch rev: 82203
Checksum: 295
Satellite: OKEAN-4
Catalog number: 23317
Epoch time: 09343.83116649
Element set: 95
Inclination: 082.5396 deg
RA of node: 170.5783 deg
Eccentricity: 0.0022846
Arg of perigee: 142.2580 deg
Mean anomaly: 218.0277 deg
Mean motion: 14.82744800 rev/day
Decay rate: 1.33e-06 rev/day^2
Epoch rev: 81839
Checksum: 310
